Skip Page Navigation
NASA JPL Caltech
NASA Logo - Jet Propulsion Laboratory + View the NASA Portal
+ Center for Near-Earth Object Studies
JPL Home Earth Solar System Stars & Galaxies Technology
JPL Solar System Dynamics
BODIES ORBITS EPHEMERIDES TOOLS PHYSICAL DATA DISCOVERY FAQ SITE MAP
IMPORTANT: The SSD Announcement email list is now available. Major changes are coming in the near future, including possible hostname and/or URL changes. To be notified of such changes, subscribe to this email list.

Please visit this page for more details.


JPL Small-Body Database Browser
Search: [ help ]  
413726 (2006 BF113)
Classification: Main-belt Asteroid          SPK-ID: 2413726
Ephemeris | Orbit Diagram | Orbital Elements | Mission Design | Physical Parameters | Discovery Circumstances ]

[ show orbit diagram ]
Orbital Elements at Epoch 2458600.5 (2019-Apr-27.0) TDB
Reference: JPL 13 (heliocentric ecliptic J2000)
 Element Value Uncertainty (1-sigma)   Units 
e .1328495350768151 1.0659e-07  
a 2.863764588082049 3.9284e-08 au
q 2.483314793985902 3.0226e-07 au
i 1.28697228757077 9.9325e-06 deg
node 93.90884565443186 0.00039141 deg
peri 307.8756718766236 0.00039281 deg
M 342.4118930065118 3.1299e-05 deg
tp 2458686.981058531602
(2019-Jul-22.48105853)
0.00015462 TDB
period 1770.126886475239
4.85
3.6423e-05
9.972e-08
d
yr
n .203375251091095 4.1848e-09 deg/d
Q 3.244214382178196 4.4503e-08 au
  Orbit Determination Parameters
   # obs. used (total)      107  
   data-arc span      4635 days (12.69 yr)  
   first obs. used      2004-09-09  
   last obs. used      2017-05-19  
   planetary ephem.      DE431  
   SB-pert. ephem.      SB431-N16  
   condition code      0  
   norm. resid. RMS      .58806  
   source      ORB  
   producer      Otto Matic  
   solution date      2019-Jul-14 06:46:01  

Additional Information
 Earth MOID = 1.49145 au 
 Jupiter MOID = 2.14723 au 
 T_jup = 3.287 
[ show covariance matrix ]

Ephemeris | Orbit Diagram | Orbital Elements | Mission Design | Physical Parameters | Discovery Circumstances ]

Physical Parameter Table
Parameter Symbol Value Units Sigma Reference Notes
absolute magnitude H 17.0   n/a MPO322076  

413726 (2006 BF113)          Discovered 2006-Jan-25 by Spacewatch at Kitt Peak
Reference: Last Updated: 2014-11-10
Ephemeris | Orbit Diagram | Orbital Elements | Mission Design | Physical Parameters | Discovery Circumstances ]
ABOUT SSD CREDITS/AWARDS PRIVACY/COPYRIGHT GLOSSARY LINKS
FirstGov
(server date/time)  
NASA Home Page
Site Manager:   Ryan S. Park
Webmaster  Alan B. Chamberlin